{"data":{"norad_id":55455,"intl_designator":"2023-015G","name":"STARLINK-5680","alt_names":[],"object_type":"PAYLOAD","status":"ACTIVE","operator":null,"country":"US","launch_date":"2023-02-02","launch_site_code":"AFETR","launch_vehicle":null,"mission":null,"orbit_class":"UNKNOWN","rcs_meters":null,"size_class":null,"mass_kg":null,"dimensions":null,"purposes":["comms"],"wikipedia_slug":null,"has_3d_model":false,"image_url":null,"decayed_at":null,"tle_current":{"epoch":"2026-05-25T00:53:55.027680Z","epoch_age_seconds":82227,"freshness":"FRESH","line1":"1 55455U 23015G   26145.03744245 -.00000027  00000+0  85519-5 0  9994","line2":"2 55455  42.9998 257.9669 0001515 310.6335  49.4385 15.27574873182399","mean_motion":15.27574873,"eccentricity":0.0001515,"inclination_deg":42.9998,"raan_deg":257.9669,"arg_perigee_deg":310.6335,"mean_anomaly_deg":49.4385,"bstar":8.5519e-6,"rev_number":18239,"period_min":94.267065101168,"perigee_km":482.02497614562,"apogee_km":484.10392018442,"semimajor_km":6861.201448165,"source":"CELESTRAK","updated_at":"2026-05-25T13:38:17.803343Z"}}}